This is the latest recevied weather packets stored in our database for station/object IW1CGW-13. If no packets are shown the sender has not sent any weather packets the latest 10 day(s).
| Time | Temp. | Humidity | Pressure | Rain* | Wind** | Luminosity | Snow |
|---|---|---|---|---|---|---|---|
| 1777893640 | 16.11° C | 64% | 1017.7 hPa | - | - | - | - |
| 1777893015 | 16.67° C | 64% | 1017.8 hPa | - | - | - | - |
| 1777892394 | 17.22° C | 64% | 1017.6 hPa | - | - | - | - |
| 1777891773 | 16.67° C | 63% | 1017.6 hPa | - | - | - | - |
| 1777891152 | 18.33° C | 63% | 1017.7 hPa | - | - | - | - |
| 1777890528 | 17.22° C | 64% | 1017.7 hPa | - | - | - | - |
| 1777889902 | 17.78° C | 64% | 1017.7 hPa | - | - | - | - |
| 1777889281 | 16.11° C | 65% | 1017.8 hPa | - | - | - | - |
| 1777888660 | 15.56° C | 66% | 1017.9 hPa | - | - | - | - |
| 1777888040 | 15° C | 66% | 1017.9 hPa | - | - | - | - |
| 1777887419 | 15° C | 66% | 1017.9 hPa | - | - | - | - |
| 1777886798 | 14.44° C | 67% | 1018 hPa | - | - | - | - |
| 1777886177 | 14.44° C | 66% | 1018 hPa | - | - | - | - |
| 1777885556 | 14.44° C | 66% | 1017.8 hPa | - | - | - | - |
| 1777884932 | 14.44° C | 66% | 1017.7 hPa | - | - | - | - |
| 1777884310 | 15° C | 66% | 1017.7 hPa | - | - | - | - |
| 1777883068 | 16.11° C | 65% | 1017.7 hPa | - | - | - | - |
| 1777882447 | 15° C | 66% | 1017.7 hPa | - | - | - | - |
| 1777881826 | 14.44° C | 66% | 1017.7 hPa | - | - | - | - |
| 1777881206 | 14.44° C | 66% | 1017.5 hPa | - | - | - | - |
| 1777880585 | 13.89° C | 67% | 1017.5 hPa | - | - | - | - |
| 1777879962 | 13.89° C | 67% | 1017.4 hPa | - | - | - | - |
| 1777879334 | 13.33° C | 67% | 1017.3 hPa | - | - | - | - |
| 1777878713 | 13.33° C | 67% | 1017.3 hPa | - | - | - | - |
| 1777878091 | 13.33° C | 67% | 1017.2 hPa | - | - | - | - |
* Rain since midnight (hover to see other rain measurements)
** Current wind speed in m/s (hover to see current wind gust speed)